Regional Weather Roundup
Issued by NWS Raleigh/Durham, NC

Home | Current Version | Previous Version | Text Only | Print | Product List | Glossary On
Versions: 1 2 3 4 5 6 7 8 9 10 11 12 13 14 15 16 17 18 19 20 21 22 23 24 25 26 27 28 29 30 31 32 33 34 35 36 37 38 39 40 41 42 43 44 45 46 47 48 49 50
000
ASUS42 KRAH 190410
RWRRAH
NORTH CAROLINA WEATHER ROUNDUP
NATIONAL WEATHER SERVICE RALEIGH NC
1200 AM EDT FRI SEP 19 2014

NOTE: "FAIR" INDICATES FEW OR NO CLOUDS BELOW 12,000 FEET WITH NO
SIGNIFICANT WEATHER AND/OR OBSTRUCTIONS TO VISIBILITY.

NCZ001-053-055-056-065-067-190500-
WESTERN NORTH CAROLINA

CITY           SKY/WX    TMP DP  RH WIND       PRES   REMARKS
ASHEVILLE      MOCLDY    65  60  84 CALM      30.10
JEFFERSON      CLOUDY    60  54  80 CALM      30.15S
MORGANTON      CLOUDY    65  65  97 CALM      30.12S
HICKORY        NOT AVBL
RUTHERFORDTON  MOCLDY    66  65  94 N3        30.06S
MOUNT AIRY     CLOUDY    69  64  82 CALM      30.10S
BOONE          CLEAR     56  56 100 CALM      30.15S FOG
$$

NCZ021-022-025-041-071-084-088-190500-
CENTRAL NORTH CAROLINA

CITY           SKY/WX    TMP DP  RH WIND       PRES   REMARKS
CHARLOTTE      NOT AVBL
GREENSBORO     CLOUDY    70  62  76 SE3       30.07R
WINSTON-SALEM  CLOUDY    68  62  81 SE3       30.09R
RALEIGH-DURHAM MOCLDY    70  61  73 SE6       30.08R
FORT BRAGG     CLEAR     69  64  84 SE5       30.05R
FAYETTEVILLE   CLEAR     67  64  90 E3        30.05R
BURLINGTON     LGT RAIN  68  62  81 CALM      30.06S
LAURINBURG     CLEAR     69  65  86 E6        30.05S
$$

NCZ011-015-027-028-043-044-047-080-103-190500-
NORTHEASTERN NORTH CAROLINA

CITY           SKY/WX    TMP DP  RH WIND       PRES   REMARKS
ROCKY MT-WILSO PTCLDY    64  58  80 CALM      30.08R
GREENVILLE     PTCLDY    63  59  88 CALM      30.09S
WASHINGTON     CLEAR     62  57  85 CALM      30.08S
ELIZABETH CITY NOT AVBL
MANTEO         CLEAR     69  57  66 E8        30.08R
CAPE HATTERAS  CLEAR     66  59  78 NE6       30.06R
$$

NCZ078-087-090-091-093-098-101-190500-
SOUTHEASTERN NORTH CAROLINA

CITY           SKY/WX    TMP DP  RH WIND       PRES   REMARKS
LUMBERTON      CLEAR     68  65  90 E6        30.04S
GOLDSBORO      CLEAR     64  63  98 CALM      30.06R
KINSTON        CLEAR     65  60  85 CALM      30.08R
KENANSVILLE    CLEAR     62  59  90 CALM      30.08R
NEW BERN       CLEAR     66  59  78 NE5       30.08R
CHERRY POINT   CLEAR     66  60  81 NE5       30.07R
BEAUFORT       CLEAR     67  61  81 NE6       30.05R
JACKSONVILLE   CLEAR     69  59  70 E10       30.05R
WILMINGTON     CLEAR     68  62  81 N3        30.04R
$$



USA.gov is the U.S. government's official web portal to all federal, state and local government web resources and services.